Location: Unspecified
(0.0000°N, 0.0000°E)
Time: 18:23:24
(UTC+02:00)

Iridium 12 - Visible Passes

Search period start: 28 July 2014 00:00
Search period end: 07 August 2014 00:00
Orbit: 776 x 779 km, 86.4° (Epoch: 28 July)

Date Brightness Start Highest point End Pass type
(mag) Time Alt. Az. Time Alt. Az. Time Alt. Az.
28 Jul 7.0 22:28:57 10° NNW 22:31:44 31° NNW 22:31:44 31° NNW visible
29 Jul 6.2 21:55:26 10° N 21:58:56 42° NNE 21:58:56 42° NNE visible
30 Jul 6.5 21:22:41 10° NNE 21:26:12 27° ENE 21:26:12 27° ENE visible
30 Jul 8.2 23:04:33 10° NW 23:06:43 15° WNW 23:06:43 15° WNW visible
31 Jul 7.2 20:51:27 10° ENE 20:53:32 13° E 20:53:32 13° E visible
31 Jul 6.9 22:29:26 10° NNW 22:34:04 34° W 22:34:04 34° W visible
01 Aug 5.5 21:55:27 10° N 22:00:38 78° W 22:01:29 61° SSW visible
02 Aug 5.7 21:22:13 10° NNE 21:27:11 47° E 21:29:01 33° SE visible
03 Aug 6.7 20:49:53 10° NE 20:53:44 21° E 20:56:40 14° SE visible
03 Aug 7.8 22:30:17 10° NW 22:34:09 21° W 22:37:13 13° SW visible
04 Aug 6.4 21:55:44 10° NNW 22:00:42 47° W 22:05:03 13° SSW visible
05 Aug 5.4 21:22:03 10° N 21:27:15 77° E 21:32:27 10° S visible
06 Aug 6.1 20:49:08 10° NNE 20:53:48 34° E 20:58:28 10° SSE visible
06 Aug 8.4 22:31:55 10° WNW 22:34:13 13° W 22:36:31 10° WSW visible
